Overview Statistics Trail Chart Weather Telemetry Raw packets
 

This is the latest recevied weather packets stored in our database for station/object KD2SIG. If no packets are shown the sender has not sent any weather packets the latest 10 day(s).

<< 9 10 11 12 13 14 15 >>
Time Temp. Humidity Pressure Rain* Wind** Luminosity Snow
1788533990 23.89° C 74% 1014.5 hPa 0 mm - 686 W/m² -
1788533686 23.89° C 73% 1014.6 hPa 0 mm - 647 W/m² -
1788533381 23.89° C 73% 1014.7 hPa 0 mm - 605 W/m² -
1788533077 23.33° C 75% 1014.6 hPa 0 mm - 209 W/m² -
1788532772 23.33° C 74% 1014.6 hPa 0 mm - 582 W/m² -
1788532469 22.78° C 77% 1014.9 hPa 0 mm - 602 W/m² -
1788532176 22.78° C 75% 1015.2 hPa 0 mm - 628 W/m² -
1788531862 23.33° C 75% 1014.9 hPa 0 mm - 646 W/m² -
1788531561 23.89° C 76% 1014.7 hPa 0 mm - 639 W/m² -
1788531256 23.33° C 75% 1014.9 hPa 0 mm - 642 W/m² -
1788530953 23.33° C 77% 1015.2 hPa 0 mm - 599 W/m² -
1788530652 22.78° C 78% 1015.3 hPa 0 mm - 595 W/m² -
1788530352 22.78° C 79% 1014.8 hPa 0 mm - 581 W/m² -
1788530052 23.33° C 79% 1014.9 hPa 0 mm - 538 W/m² -
1788529748 22.78° C 81% 1014.7 hPa 0 mm - 517 W/m² -
1788529448 22.22° C 82% 1014.9 hPa 0 mm - 501 W/m² -
1788529164 21.67° C 82% 1014.8 hPa 0 mm - 424 W/m² -
1788528838 21.67° C 84% 1014.7 hPa 0 mm - 428 W/m² -
1788528533 21.11° C 84% 1014.8 hPa 0 mm - 422 W/m² -
1788528228 21.11° C 86% 1014.6 hPa 0 mm - 380 W/m² -
1788527922 21.11° C 87% 1014.6 hPa 0 mm - 370 W/m² -
1788527617 20.56° C 89% 1014.7 hPa 0 mm - 339 W/m² -
1788527312 20.56° C 89% 1014.8 hPa 0 mm - 339 W/m² -
1788527011 20.56° C 91% 1014.6 hPa 0 mm - 316 W/m² -
1788526707 20° C 92% 1014.6 hPa 0 mm - 294 W/m² -

* Rain latest hour (hover to see other rain measurements)
** Current wind speed in m/s (hover to see current wind gust speed)